Estación meteorológica de Cercs - La Baells (Berguedà, Cercs)

Consulta los datos en tiempo real de la estación meteorológica de Cercs - La Baells





Hora UTC 19:10
Temperatura 11.0 ºC
Humedad 79.3 %
Presión 1009.2 hPa
Pluja 0.3 mm
Velocidad viento 0.1 km/h
Dirección viento NNE

Datos diarios 2026-05-05



Hora UTC (invierno +1h; verano +2h)
DADES NO VALIDADES
Temperatura (ºC) Humedad (%) Presión (hPa) Velocidad viento (km/h) Precipitación (mm)
Hora UTC Aire Humedad Presión Vel. Dir. Vel. Max Dir. Intent. máx 5 min.
00:05 8.8 95.3 1011.2 0.1 ESE 0.1 SE 0.0
00:10 8.8 94.8 1011.2 0.1 W 0.1 W 0.0
00:15 8.7 94.7 1011.2 0.2 NW 0.2 NW 0.0
00:20 8.6 94.1 1011.2 0.6 NW 0.6 NW 0.0
00:25 8.5 93.9 1011.2 0.7 NW 0.7 NW 0.0
00:30 8.4 93.1 1010.4 1.1 NW 1.1 NW 0.0
00:35 8.4 92.9 1010.2 1.3 NW 1.3 NW 0.0
00:40 8.3 92.7 1010.2 0.6 NW 1.3 NW 0.0
00:45 8.2 92.6 1010.2 0.4 NW 1.3 NW 0.0
00:50 8.2 92.8 1010.2 0.8 NW 1.3 NW 0.0
00:55 8.2 92.9 1010.2 0.9 NNW 1.3 NW 0.0
01:00 8.2 93.0 1010.2 0.3 NNW 1.3 NW 0.0
01:05 8.2 93.0 1010.2 0.2 NNW 1.3 NW 0.0
01:10 8.2 92.5 1010.2 0.2 NW 1.3 NW 0.0
01:15 8.2 92.3 1010.2 0.1 NW 1.3 NW 0.0
01:20 8.1 92.0 1010.2 0.0 NNW 1.3 NW 0.0
01:25 8.1 91.9 1010.2 0.0 N 1.3 NW 0.0
01:30 7.9 92.4 1010.2 0.1 SE 1.3 NW 0.0
01:35 7.8 92.6 1010.2 0.1 E 1.3 NW 0.0
01:40 7.6 93.5 1010.2 0.1 SW 1.3 NW 0.0
01:45 7.5 93.8 1010.2 0.1 W 1.3 NW 0.0
01:50 7.3 94.0 1010.2 0.1 SE 1.3 NW 0.0
01:55 7.3 94.1 1010.2 0.1 E 1.3 NW 0.0
01:55 7.3 94.1 1010.2 0.1 E 1.3 NW 0.0
01:55 7.3 94.1 1010.2 0.1 E 1.3 NW 0.0
02:15 7.4 94.6 1011.2 0.0 E 1.3 NW 0.0
02:20 7.4 94.5 1011.2 0.0 SE 1.3 NW 0.0
02:25 7.4 94.5 1011.2 0.0 SE 1.3 NW 0.0
02:30 7.4 94.1 1010.4 0.2 W 1.3 NW 0.0
02:35 7.4 94.0 1010.2 0.2 NW 1.3 NW 0.0
02:40 7.4 94.2 1010.2 0.3 NW 1.3 NW 0.0
02:45 7.4 94.3 1010.2 0.4 NW 1.3 NW 0.0
02:50 7.3 94.5 1010.2 0.4 NW 1.3 NW 0.0
02:55 7.3 94.5 1010.2 0.4 NW 1.3 NW 0.0
03:00 7.3 94.4 1010.2 0.4 NW 1.3 NW 0.0
03:05 7.3 94.4 1010.2 0.4 NW 1.3 NW 0.0
03:10 7.3 94.2 1010.2 0.2 NW 1.3 NW 0.0
03:15 7.2 94.1 1010.2 0.1 NW 1.3 NW 0.0
03:20 7.2 94.0 1010.2 0.2 NW 1.3 NW 0.0
03:25 7.2 94.0 1010.2 0.2 NW 1.3 NW 0.0
03:30 7.1 94.2 1010.2 0.0 W 1.3 NW 0.0
03:35 7.1 94.2 1010.2 0.0 WSW 1.3 NW 0.0
03:40 7.0 94.4 1010.2 0.1 WNW 1.3 NW 0.0
03:45 6.9 94.4 1010.2 0.1 NW 1.3 NW 0.0
03:50 6.8 94.2 1010.2 0.2 WNW 1.3 NW 0.0
03:55 6.8 94.2 1010.2 0.2 WNW 1.3 NW 0.0
04:00 6.7 94.4 1010.2 0.2 WNW 1.3 NW 0.0
04:05 6.7 94.5 1010.2 0.2 WNW 1.3 NW 0.0
04:10 6.8 94.5 1010.2 0.2 WNW 1.3 NW 0.0
04:15 6.8 94.5 1010.2 0.2 WNW 1.3 NW 0.0
04:20 6.8 94.6 1010.2 0.3 NW 1.3 NW 0.0
04:25 6.9 94.6 1010.2 0.3 NW 1.3 NW 0.0
04:30 7.0 94.7 1010.2 0.3 NNW 1.3 NW 0.0
04:35 7.0 94.7 1010.2 0.3 NNW 1.3 NW 0.0
04:40 7.1 94.1 1010.2 0.4 NNW 1.3 NW 0.0
04:45 7.1 93.9 1010.2 0.5 NNW 1.3 NW 0.0
04:50 7.0 93.7 1010.2 0.4 NNW 1.3 NW 0.0
04:55 7.0 93.6 1010.2 0.3 NNW 1.3 NW 0.0
05:00 6.9 93.3 1010.2 0.1 NW 1.3 NW 0.0
05:05 6.9 93.2 1010.2 0.1 NW 1.3 NW 0.0
05:10 6.6 92.6 1010.2 0.2 SE 1.3 NW 0.0
05:15 6.6 92.5 1010.2 0.2 E 1.3 NW 0.0
05:20 6.4 93.3 1010.2 0.2 E 1.3 NW 0.0
05:25 6.3 93.5 1010.2 0.2 E 1.3 NW 0.0
05:30 6.2 94.1 1011.0 0.2 E 1.3 NW 0.0
05:35 6.2 94.3 1011.2 0.2 E 1.3 NW 0.0
05:40 6.3 94.5 1011.2 0.2 E 1.3 NW 0.0
05:45 6.4 94.6 1011.2 0.2 E 1.3 NW 0.0
05:50 6.7 94.3 1011.2 0.1 ESE 1.3 NW 0.0
05:55 6.8 94.2 1011.2 0.1 SE 1.3 NW 0.0
05:55 6.8 94.2 1011.2 0.1 SE 1.3 NW 0.0
06:00 7.0 93.4 1011.2 0.1 W 1.3 NW 0.0
06:10 7.3 93.0 1011.2 0.1 NW 1.3 NW 0.0
06:15 7.4 93.0 1011.2 0.1 NNW 1.3 NW 0.0
06:20 7.3 91.8 1011.2 0.2 NW 1.3 NW 0.0
06:25 7.3 91.5 1011.2 0.2 NW 1.3 NW 0.0
06:30 7.3 91.9 1011.2 0.1 NNW 1.3 NW 0.0
06:35 7.3 92.0 1011.2 0.1 N 1.3 NW 0.0
06:40 7.3 91.5 1011.2 0.2 SSE 1.3 NW 0.0
06:45 7.4 91.4 1011.2 0.2 E 1.3 NW 0.0
06:50 7.6 92.7 1011.2 0.2 ENE 1.3 NW 0.0
06:55 7.7 93.1 1011.2 0.2 NE 1.3 NW 0.0
07:00 7.8 93.0 1011.2 0.1 ENE 1.3 NW 0.0
07:05 7.9 93.0 1011.2 0.1 ENE 1.3 NW 0.0
07:10 7.8 90.7 1011.2 0.1 SE 1.3 NW 0.0
07:15 7.8 90.1 1011.2 0.1 SE 1.3 NW 0.0
07:20 8.1 90.7 1011.2 0.1 SE 1.3 NW 0.0
07:25 8.2 90.9 1011.2 0.1 SE 1.3 NW 0.0
07:30 8.3 88.5 1011.2 0.1 SSE 1.3 NW 0.0
07:35 8.3 87.8 1011.2 0.1 SSE 1.3 NW 0.0
07:40 8.3 88.0 1011.2 0.1 SE 1.3 NW 0.0
07:45 8.3 88.0 1011.2 0.1 SE 1.3 NW 0.0
07:50 8.3 88.4 1010.4 0.1 WNW 1.3 NW 0.0
07:55 8.4 88.5 1010.2 0.1 NNW 1.3 NW 0.0
08:00 8.6 88.9 1010.2 0.3 NNW 1.3 NW 0.0
08:05 8.6 89.0 1010.2 0.3 NNW 1.3 NW 0.0
08:10 9.1 88.8 1010.2 0.4 SSW 1.3 NW 0.0
08:15 9.2 88.8 1010.2 0.4 S 1.3 NW 0.0
08:20 9.7 87.5 1010.2 0.1 SSW 1.3 NW 0.0
08:25 9.9 87.1 1010.2 0.0 SW 1.3 NW 0.0
08:30 10.7 82.7 1010.2 0.1 SSW 1.3 NW 0.0
08:35 11.0 81.5 1010.2 0.1 S 1.3 NW 0.0
08:40 11.0 81.2 1010.2 0.1 SE 1.3 NW 0.0
08:45 11.0 81.1 1010.2 0.1 ESE 1.3 NW 0.0
08:50 10.9 83.6 1010.2 0.2 ENE 1.3 NW 0.0
08:55 10.8 84.3 1010.2 0.2 ENE 1.3 NW 0.0
09:00 11.0 83.8 1010.2 0.7 ENE 1.3 NW 0.0
09:05 11.0 83.6 1010.2 0.8 ENE 1.3 NW 0.0
09:10 11.3 82.3 1010.2 0.4 ENE 1.3 NW 0.0
09:15 11.3 82.0 1010.2 0.3 ENE 1.3 NW 0.0
09:20 11.9 81.4 1010.2 0.4 E 1.3 NW 0.0
09:25 12.0 81.3 1010.2 0.4 E 1.3 NW 0.0
09:30 12.0 79.9 1010.2 0.7 ENE 1.3 NW 0.0
09:35 12.1 79.5 1010.2 0.8 ENE 1.3 NW 0.0
09:40 11.9 80.0 1010.2 1.4 ENE 1.4 ENE 0.0
09:45 11.8 80.1 1010.2 1.5 ENE 1.5 ENE 0.0
09:50 12.4 79.3 1010.2 1.6 E 1.6 E 0.0
09:55 12.6 79.0 1010.2 1.7 E 1.7 E 0.0
10:00 13.7 77.1 1010.2 1.5 SE 1.7 E 0.0
10:05 14.0 76.6 1010.2 1.5 SSE 1.7 E 0.0
10:10 13.8 74.6 1010.2 1.4 SE 1.7 E 0.0
10:15 13.8 74.1 1010.2 1.4 SE 1.7 E 0.0
10:20 14.4 74.4 1010.2 2.0 S 2.0 S 0.0
10:25 14.6 74.5 1010.2 2.2 S 2.2 S 0.0
10:30 14.8 71.7 1010.2 2.1 SSE 2.2 S 0.0
10:35 14.8 71.0 1010.2 2.0 SSE 2.2 S 0.0
10:40 14.3 71.8 1010.2 1.6 SSE 2.2 S 0.0
10:45 14.2 72.0 1010.2 1.5 SSE 2.2 S 0.0
10:50 14.3 75.4 1010.2 1.8 S 2.2 S 0.0
10:55 14.4 76.4 1010.2 1.8 S 2.2 S 0.0
11:00 15.7 70.3 1010.2 1.9 S 2.2 S 0.0
11:05 16.0 68.7 1010.2 2.0 SSE 2.2 S 0.0
11:10 15.3 68.9 1010.2 1.7 ESE 2.2 S 0.0
11:15 15.1 69.0 1010.2 1.6 ESE 2.2 S 0.0
11:20 14.8 69.8 1010.2 1.5 E 2.2 S 0.0
11:25 14.7 70.0 1010.2 1.5 E 2.2 S 0.0
11:30 14.6 71.7 1010.2 1.8 SE 2.2 S 0.0
11:35 14.6 72.2 1010.2 1.8 SE 2.2 S 0.0
11:40 14.6 72.5 1010.2 1.7 SE 2.2 S 0.0
11:45 14.6 72.6 1010.2 1.7 SSE 2.2 S 0.0
11:50 14.7 71.3 1010.2 1.4 SE 2.2 S 0.0
11:55 14.7 71.0 1010.2 1.3 SE 2.2 S 0.0
12:00 14.9 70.7 1010.2 1.0 E 2.2 S 0.0
12:05 14.9 70.6 1010.2 1.0 E 2.2 S 0.0
12:10 15.1 69.9 1010.2 1.3 ESE 2.2 S 0.0
12:10 15.1 69.9 1010.2 1.3 ESE 2.2 S 0.0
12:20 15.2 69.7 1009.4 1.9 ESE 2.2 S 0.0
12:25 15.3 69.7 1009.2 2.0 ESE 2.2 S 0.0
12:30 15.5 68.8 1009.2 1.3 ENE 2.2 S 0.0
12:35 15.6 68.5 1009.2 1.1 ENE 2.2 S 0.0
12:40 16.1 67.3 1009.2 0.7 E 2.2 S 0.0
12:45 16.2 67.0 1009.2 0.6 E 2.2 S 0.0
12:50 16.3 66.6 1009.2 1.0 SSE 2.2 S 0.0
12:55 16.3 66.6 1009.2 1.1 S 2.2 S 0.0
13:00 17.4 62.2 1009.2 0.7 S 2.2 S 0.0
13:05 17.6 61.1 1009.2 0.7 SSE 2.2 S 0.0
13:10 16.7 60.6 1009.2 1.5 ESE 2.2 S 0.0
13:15 16.5 60.5 1009.2 1.7 E 2.2 S 0.0
13:20 16.0 61.7 1009.2 2.4 ENE 2.4 ENE 0.0
13:25 15.9 62.0 1009.2 2.6 ENE 2.6 ENE 0.0
13:30 15.9 62.2 1009.2 2.5 ESE 2.6 ENE 0.0
13:35 15.9 62.3 1009.2 2.5 SE 2.6 ENE 0.0
13:40 16.5 58.6 1009.2 2.5 SE 2.6 ENE 0.0
13:45 16.7 57.7 1009.2 2.5 SE 2.6 ENE 0.0
13:50 16.3 58.9 1009.2 3.0 ESE 3.0 ESE 0.0
13:55 16.2 59.3 1009.2 3.1 ESE 3.1 ESE 0.0
14:00 16.1 59.2 1008.4 2.6 SE 3.1 ESE 0.0
14:05 16.1 59.1 1008.2 2.5 SE 3.1 ESE 0.0
14:10 16.0 58.4 1008.2 3.6 ESE 3.6 ESE 0.0
14:15 16.0 58.2 1008.2 3.9 E 3.9 E 0.0
14:20 16.3 57.9 1008.2 5.0 ESE 5.0 ESE 0.0
14:25 16.4 57.9 1008.2 5.3 SE 5.3 SE 0.0
14:30 16.5 59.3 1008.2 3.4 SE 5.3 SE 0.0
14:35 16.6 59.7 1008.2 2.9 SE 5.3 SE 0.0
14:40 16.4 61.2 1008.2 2.7 SE 5.3 SE 0.0
14:45 16.3 61.7 1008.2 2.6 SE 5.3 SE 0.0
14:50 16.0 60.6 1008.2 2.5 E 5.3 SE 0.0
14:55 15.9 60.3 1008.2 2.4 E 5.3 SE 0.0
15:00 15.8 60.4 1008.2 2.0 ESE 5.3 SE 0.0
15:05 15.8 60.4 1008.2 1.8 ESE 5.3 SE 0.0
15:10 16.2 58.3 1008.2 1.7 E 5.3 SE 0.0
15:15 16.4 57.7 1008.2 1.7 E 5.3 SE 0.0
15:20 16.3 56.7 1008.2 3.1 SE 5.3 SE 0.0
15:25 16.3 56.5 1008.2 3.4 SSE 5.3 SE 0.0
15:30 16.3 56.2 1008.2 2.0 SE 5.3 SE 0.0
15:35 16.4 56.1 1008.2 1.6 ESE 5.3 SE 0.0
15:40 16.1 55.0 1008.2 1.9 ESE 5.3 SE 0.0
15:45 16.1 54.7 1008.2 1.9 ESE 5.3 SE 0.0
15:50 16.0 55.3 1008.2 3.2 SE 5.3 SE 0.0
15:55 16.0 55.5 1008.2 3.6 SE 5.3 SE 0.0
16:00 15.9 56.0 1008.2 2.3 SE 5.3 SE 0.0
16:05 15.8 56.1 1008.2 2.0 SE 5.3 SE 0.0
16:10 15.8 56.0 1008.2 2.3 SE 5.3 SE 0.0
16:15 15.8 56.0 1008.2 2.4 SSE 5.3 SE 0.0
16:20 15.7 57.2 1008.2 2.5 SSE 5.3 SE 0.0
16:25 15.7 57.6 1008.2 2.5 SSE 5.3 SE 0.0
16:30 15.6 57.8 1008.2 2.0 SE 5.3 SE 0.0
16:35 15.6 57.8 1008.2 1.8 SE 5.3 SE 0.0
16:40 15.4 59.9 1008.2 2.6 SE 5.3 SE 0.0
16:45 15.4 60.5 1008.2 2.8 SE 5.3 SE 0.0
16:50 15.2 61.8 1008.2 2.0 SE 5.3 SE 0.0
16:55 15.1 62.1 1008.2 1.6 SSE 5.3 SE 0.0
17:00 14.9 60.1 1008.2 1.0 SSW 5.3 SE 0.1
17:05 14.9 59.5 1008.2 0.8 SW 5.3 SE 0.0
17:10 13.8 60.9 1008.2 1.0 SW 5.3 SE 0.1
17:15 13.5 61.3 1008.2 1.1 SSW 5.3 SE 0.1
17:20 12.3 71.2 1008.2 0.5 SSW 5.3 SE 0.0
17:25 12.0 73.8 1008.2 0.4 SSW 5.3 SE 0.0
17:30 11.5 75.3 1008.2 0.6 WNW 5.3 SE 0.0
17:35 11.4 75.7 1008.2 0.6 WNW 5.3 SE 0.0
17:40 11.5 72.7 1008.2 1.7 NW 5.3 SE 0.0
17:45 11.5 71.9 1008.2 2.0 NW 5.3 SE 0.0
17:50 11.5 70.0 1008.2 2.0 NW 5.3 SE 0.0
17:55 11.6 69.5 1008.2 2.0 NW 5.3 SE 0.0
18:00 11.8 69.3 1008.2 1.3 WNW 5.3 SE 0.0
18:05 11.9 69.3 1008.2 1.1 WNW 5.3 SE 0.0
18:10 11.8 67.7 1009.0 1.8 WNW 5.3 SE 0.0
18:15 11.8 67.3 1009.2 2.0 WNW 5.3 SE 0.0
18:20 11.6 69.6 1009.2 1.0 NW 5.3 SE 0.0
18:25 11.6 70.2 1009.2 0.8 NW 5.3 SE 0.0
18:30 11.3 76.2 1009.2 0.3 ENE 5.3 SE 0.0
18:35 11.3 77.7 1009.2 0.2 N 5.3 SE 0.0
18:40 11.0 77.3 1009.2 0.3 SE 5.3 SE 0.0
18:45 11.0 77.2 1009.2 0.4 S 5.3 SE 0.0
18:50 10.9 78.3 1009.2 1.0 SE 5.3 SE 0.0
18:55 10.9 78.6 1009.2 1.2 SE 5.3 SE 0.0
19:00 11.1 78.1 1009.2 0.5 ESE 5.3 SE 0.0
19:05 11.1 78.0 1009.2 0.3 ESE 5.3 SE 0.0
19:10 11.0 79.3 1009.2 0.1 NNE 5.3 SE 0.0
Máxima 17.6 95.3 1011.2 5.3 SE 5.3 SE 0.1
Mínima 6.2 54.7 1008.2
Total 0.3